When you browse on this site, cookies collect data to enhance your experience and personalize the content and advertising you see.
Visit our Privacy Policy to learn more. By continuing to use the site, you agree to this use of cookies and data.
  • en Suisse
  • Liste des pays
  • À 7 jours
  • Température de l'eau
  • Carte météo
  • Widgets météo
  • user-avatar
    Se connecter

    Météo par heure à Peskovo

    Ce jour, 25 Août, Dimanche

    Heure Température Précipitation Vent Pression Humidité
    00:00 +14°C° 0 mm 1 m/s 764 mmHg 86%
    01:00 +13°C° 0 mm 1 m/s 764 mmHg 87%
    02:00 +13°C° 0 mm 1 m/s 764 mmHg 88%
    03:00 +12°C° 0 mm 1 m/s 765 mmHg 89%
    04:00 +12°C° 0 mm 1 m/s 765 mmHg 90%
    05:00 +10°C° 0 mm 0 m/s 765 mmHg 91%
    06:00 +12°C° 0 mm 0 m/s 765 mmHg 85%
    07:00 +14°C° 0 mm 0 m/s 765 mmHg 79%
    08:00 +18°C° 0 mm 1 m/s 766 mmHg 71%
    09:00 +19°C° 0 mm 1 m/s 765 mmHg 66%
    10:00 +21°C° 0 mm 1 m/s 765 mmHg 61%
    11:00 +22°C° 0 mm 1 m/s 765 mmHg 56%
    12:00 +21°C° 0 mm 0 m/s 765 mmHg 54%
    13:00 +21°C° 0 mm 0 m/s 765 mmHg 52%
    14:00 +22°C° 0 mm 0 m/s 765 mmHg 50%
    15:00 +21°C° 0 mm 0 m/s 765 mmHg 53%
    16:00 +21°C° 0 mm 0 m/s 765 mmHg 56%
    17:00 +22°C° 0 mm 1 m/s 764 mmHg 59%
    18:00 +21°C° 0 mm 1 m/s 764 mmHg 64%
    19:00 +19°C° 0 mm 1 m/s 765 mmHg 69%
    20:00 +16°C° 0 mm 1 m/s 765 mmHg 74%
    21:00 +15°C° 0 mm 1 m/s 765 mmHg 76%
    22:00 +15°C° 0 mm 1 m/s 765 mmHg 78%
    23:00 +14°C° 0 mm 2 m/s 765 mmHg 80%

    Demain, 26 Août, Lundi

    Heure Température Précipitation Vent Pression Humidité
    00:00 +14°C° 0 mm 1 m/s 765 mmHg 82%
    01:00 +13°C° 0 mm 1 m/s 765 mmHg 84%
    02:00 +13°C° 0 mm 1 m/s 765 mmHg 86%
    03:00 +13°C° 0 mm 1 m/s 765 mmHg 88%
    04:00 +12°C° 0 mm 1 m/s 764 mmHg 90%
    05:00 +12°C° 0 mm 1 m/s 764 mmHg 92%
    06:00 +14°C° 0 mm 1 m/s 764 mmHg 86%
    07:00 +16°C° 0 mm 2 m/s 764 mmHg 81%
    08:00 +17°C° 0 mm 2 m/s 764 mmHg 75%
    09:00 +19°C° 0 mm 2 m/s 764 mmHg 70%
    10:00 +21°C° 0 mm 2 m/s 763 mmHg 64%
    11:00 +24°C° 0 mm 2 m/s 763 mmHg 58%
    12:00 +25°C° 0 mm 3 m/s 763 mmHg 57%
    13:00 +25°C° 0 mm 3 m/s 762 mmHg 57%
    14:00 +26°C° 0 mm 3 m/s 762 mmHg 56%
    15:00 +25°C° 0 mm 3 m/s 762 mmHg 61%
    16:00 +25°C° 0 mm 2 m/s 762 mmHg 66%
    17:00 +25°C° 0 mm 2 m/s 761 mmHg 71%
    18:00 +23°C° 0 mm 2 m/s 761 mmHg 75%
    19:00 +21°C° 0 mm 2 m/s 761 mmHg 80%
    20:00 +19°C° 0 mm 2 m/s 761 mmHg 84%
    21:00 +18°C° 0 mm 2 m/s 761 mmHg 84%
    22:00 +17°C° 0 mm 2 m/s 761 mmHg 84%
    23:00 +16°C° 0 mm 2 m/s 762 mmHg 84%

    Après-demain, 27 Août, Mardi

    Heure Température Précipitation Vent Pression Humidité
    00:00 +16°C° 0 mm 2 m/s 762 mmHg 87%
    01:00 +15°C° 0 mm 2 m/s 762 mmHg 89%
    02:00 +15°C° 0 mm 2 m/s 762 mmHg 91%
    03:00 +15°C° 0 mm 2 m/s 762 mmHg 93%
    04:00 +14°C° 0 mm 2 m/s 762 mmHg 95%
    05:00 +14°C° 0 mm 2 m/s 762 mmHg 96%
    06:00 +15°C° 0 mm 2 m/s 762 mmHg 91%
    07:00 +17°C° 0 mm 2 m/s 762 mmHg 87%
    08:00 +18°C° 0 mm 2 m/s 763 mmHg 82%
    09:00 +20°C° 0 mm 2 m/s 763 mmHg 76%
    10:00 +21°C° 0 mm 2 m/s 763 mmHg 70%
    11:00 +24°C° 0 mm 2 m/s 763 mmHg 64%
    12:00 +24°C° 0 mm 3 m/s 763 mmHg 61%
    13:00 +25°C° 0 mm 3 m/s 763 mmHg 58%
    14:00 +26°C° 0 mm 3 m/s 763 mmHg 54%
    15:00 +25°C° 0 mm 3 m/s 763 mmHg 57%
    16:00 +24°C° 0 mm 3 m/s 762 mmHg 59%
    17:00 +24°C° 0 mm 3 m/s 762 mmHg 61%
    18:00 +21°C° 0 mm 2 m/s 762 mmHg 65%
    19:00 +19°C° 0 mm 2 m/s 763 mmHg 70%
    20:00 +17°C° 0 mm 2 m/s 763 mmHg 75%
    21:00 +16°C° 0 mm 1 m/s 763 mmHg 77%
    22:00 +15°C° 0 mm 1 m/s 763 mmHg 79%
    23:00 +15°C° 0 mm 1 m/s 764 mmHg 81%

    28 Août, Mercredi

    Heure Température Précipitation Vent Pression Humidité
    00:00 +14°C° 0 mm 1 m/s 764 mmHg 82%
    01:00 +14°C° 0 mm 1 m/s 764 mmHg 83%
    02:00 +13°C° 0 mm 1 m/s 764 mmHg 85%
    03:00 +13°C° 0 mm 1 m/s 764 mmHg 86%
    04:00 +12°C° 0 mm 1 m/s 764 mmHg 88%
    05:00 +12°C° 0 mm 1 m/s 764 mmHg 90%
    06:00 +14°C° 0 mm 1 m/s 764 mmHg 85%
    07:00 +15°C° 0 mm 2 m/s 765 mmHg 79%
    08:00 +17°C° 0 mm 2 m/s 765 mmHg 74%
    09:00 +18°C° 0 mm 2 m/s 765 mmHg 68%
    10:00 +20°C° 0 mm 2 m/s 765 mmHg 62%
    11:00 +21°C° 0 mm 2 m/s 765 mmHg 57%
    12:00 +23°C° 0 mm 2 m/s 764 mmHg 55%
    13:00 +23°C° 0 mm 2 m/s 764 mmHg 53%
    14:00 +24°C° 0 mm 2 m/s 764 mmHg 52%
    15:00 +23°C° 0 mm 2 m/s 764 mmHg 55%
    16:00 +23°C° 0 mm 2 m/s 764 mmHg 57%
    17:00 +21°C° 0 mm 2 m/s 764 mmHg 60%
    18:00 +19°C° 0 mm 2 m/s 764 mmHg 65%
    19:00 +17°C° 0 mm 2 m/s 764 mmHg 70%
    20:00 +15°C° 0 mm 2 m/s 764 mmHg 76%
    21:00 +14°C° 0 mm 2 m/s 764 mmHg 76%
    22:00 +13°C° 0 mm 2 m/s 764 mmHg 77%
    23:00 +13°C° 0 mm 2 m/s 764 mmHg 78%

    29 Août, Jeudi

    Heure Température Précipitation Vent Pression Humidité
    00:00 +12°C° 0 mm 2 m/s 764 mmHg 77%
    01:00 +10°C° 0 mm 2 m/s 764 mmHg 76%
    02:00 +10°C° 0 mm 2 m/s 764 mmHg 75%
    03:00 +9°C° 0 mm 2 m/s 764 mmHg 76%
    04:00 +9°C° 0 mm 2 m/s 764 mmHg 77%
    05:00 +9°C° 0 mm 2 m/s 764 mmHg 78%
    06:00 +10°C° 0 mm 2 m/s 764 mmHg 74%
    07:00 +13°C° 0 mm 2 m/s 764 mmHg 70%
    08:00 +13°C° 0 mm 3 m/s 764 mmHg 66%
    09:00 +16°C° 0 mm 3 m/s 764 mmHg 61%
    10:00 +17°C° 0 mm 3 m/s 764 mmHg 55%
    11:00 +19°C° 0 mm 3 m/s 764 mmHg 50%
    12:00 +20°C° 0 mm 3 m/s 763 mmHg 47%
    13:00 +20°C° 0 mm 3 m/s 763 mmHg 45%
    14:00 +21°C° 0 mm 4 m/s 763 mmHg 42%
    15:00 +21°C° 0 mm 3 m/s 762 mmHg 46%
    16:00 +20°C° 0 mm 3 m/s 762 mmHg 50%
    17:00 +20°C° 0 mm 2 m/s 762 mmHg 54%
    18:00 +18°C° 0 mm 2 m/s 762 mmHg 59%
    19:00 +16°C° 0 mm 2 m/s 762 mmHg 65%
    20:00 +14°C° 0 mm 2 m/s 762 mmHg 70%
    21:00 +12°C° 0 mm 3 m/s 762 mmHg 73%
    22:00 +12°C° 0 mm 3 m/s 762 mmHg 76%
    23:00 +11°C° 0 mm 3 m/s 762 mmHg 78%

    30 Août, Vendredi

    Heure Température Précipitation Vent Pression Humidité
    00:00 +11°C° 0 mm 3 m/s 761 mmHg 81%
    01:00 +10°C° 0 mm 3 m/s 761 mmHg 84%
    02:00 +10°C° 0 mm 3 m/s 761 mmHg 87%
    03:00 +10°C° 0 mm 3 m/s 761 mmHg 87%
    04:00 +10°C° 0 mm 3 m/s 761 mmHg 86%
    05:00 +10°C° 0 mm 3 m/s 761 mmHg 86%
    06:00 +11°C° 0 mm 3 m/s 761 mmHg 81%
    07:00 +12°C° 0 mm 3 m/s 761 mmHg 77%
    08:00 +13°C° 0 mm 3 m/s 761 mmHg 72%
    09:00 +15°C° 0 mm 4 m/s 761 mmHg 68%
    10:00 +18°C° 0 mm 4 m/s 761 mmHg 65%
    11:00 +19°C° 0 mm 4 m/s 761 mmHg 61%
    12:00 +20°C° 0 mm 4 m/s 761 mmHg 60%
    13:00 +21°C° 0 mm 4 m/s 761 mmHg 59%
    14:00 +21°C° 0 mm 4 m/s 760 mmHg 58%
    15:00 +21°C° 0 mm 4 m/s 761 mmHg 62%
    16:00 +20°C° 0 mm 3 m/s 761 mmHg 65%
    17:00 +20°C° 0 mm 2 m/s 761 mmHg 68%
    18:00 +19°C° 0 mm 2 m/s 761 mmHg 71%
    19:00 +18°C° 0 mm 2 m/s 761 mmHg 74%
    20:00 +17°C° 0 mm 2 m/s 761 mmHg 76%
    21:00 +17°C° 0 mm 2 m/s 761 mmHg 79%
    22:00 +16°C° 0 mm 2 m/s 761 mmHg 82%
    23:00 +15°C° 0 mm 2 m/s 762 mmHg 85%
    Voir plus